[[{"header":{"parameterUnit":"m.s-1","parameterCategory":1,"la1":30.2991,"la2":30.254,"lo1":-89.0895,"lo2":-89.0444,"dy":0.0017,"dx":0.0017,"nx":28,"ny":28,"refTime":"2023-09-29T03:00:00:Z","depth":0,"parameterNumber":2,"parameterNumberName":"U-component_of_WINDS"},"data":[0,0,0,0,0,0,0,0,0,0,0,0,0,0,0,0,0,0,0,0,0,0,0,0,0,0,0,0,0,0,0,0,0,0,0,0,0,0,0,0,0,0,0,0,0,0,0,0,0,0,0,0,0,0,0,0,0,0,-4.5739,-4.5739,0,-4.5741,-4.5741,-4.5741,-4.5559,-4.5554,-4.555,-4.5545,-4.555,-4.5554,-4.5559,0,0,0,0,0,0,0,0,0,0,0,0,0,-4.5578,-4.5582,-4.5739,-4.5739,-4.5739,-4.5741,-4.5741,-4.5741,-4.556,-4.5554,-4.5548,-4.5543,-4.5548,-4.5554,-4.5559,0,0,0,0,0,0,0,0,0,0,0,0,0,-4.5621,-4.5583,-4.5739,-4.5649,-4.5641,-4.5741,-4.5741,-4.5741,-4.5561,-4.5554,-4.5547,-4.554,-4.5547,-4.5553,-4.556,-4.5748,0,0,-4.5581,-4.5584,0,0,0,0,0,0,0,0,-4.5619,-4.5627,-4.5662,-4.5655,-4.5646,-4.5642,-4.5686,-4.5744,-4.5563,-4.5592,-4.5545,-4.5536,-4.5587,-4.559,-4.5606,-4.5748,-4.5748,-4.5582,-4.5586,-4.5589,-4.5591,0,0,0,0,0,0,0,-4.5616,-4.5626,-4.574,-4.5663,-4.5653,-4.5608,-4.5606,-4.5696,-4.563,-4.5588,-4.5575,-4.5578,-4.5581,-4.56,-4.5605,-4.5748,-4.5582,-4.5588,-4.5592,-4.5595,-4.6043,-4.605,0,0,0,0,0,0,-4.5625,-4.5625,-4.574,-4.574,-4.5614,-4.5617,-4.5615,-4.5651,-4.5628,-4.5618,-4.5584,-4.5569,-4.5592,-4.5597,-4.5605,-4.5822,-4.5589,-4.5596,-4.56,-4.6035,-4.6045,-4.6053,0,0,0,0,0,0,-4.5623,-4.5637,-4.574,-4.5679,-4.5688,-4.5628,-4.567,-4.5655,-4.5674,-4.5625,-4.5612,-4.5616,-4.5586,-4.5595,-4.5713,-4.582,-4.5599,-4.5605,-4.6026,-4.6038,-4.6049,-4.626,0,0,0,0,0,0,-4.5619,-4.5637,-4.5708,-4.5682,-4.5692,-4.5849,-4.5676,-4.566,-4.5686,-4.5667,-4.5651,-4.5642,-4.5581,-4.5704,-4.572,-4.5825,-4.561,-4.6016,-4.6032,-4.6045,-4.6243,-4.6277,-4.6306,0,0,0,0,0,-4.5614,-4.5768,-4.5713,-4.5728,-4.5779,-4.5855,-4.5861,-4.5788,-4.5695,-4.5766,-4.5734,-4.5642,-4.5805,-4.5717,-4.5734,-4.5843,-4.6009,-4.6027,-4.6044,-4.6229,-4.627,-4.6306,0,0,0,0,0,0,-4.581,-4.5763,-4.5701,-4.5852,-4.5859,-4.5824,-4.5911,-4.5834,-4.5869,-4.5849,-4.5757,-4.5755,-4.5888,-4.5877,-4.578,-4.6023,-4.5891,-4.5913,-4.6026,-4.6065,-4.6096,-4.6096,-4.5616,0,0,0,0,0,-4.5871,-4.5936,-4.5891,-4.6029,-4.6035,-4.5973,-4.6003,-4.5946,-4.595,-4.5952,-4.5929,-4.5937,-4.5989,-4.6026,-4.6072,-4.624,-4.6234,-4.6323,-4.6355,-4.6381,-4.6401,-4.6488,-4.6527,-4.611,-4.611,-4.611,0,0,-4.5997,-4.598,-4.6027,-4.6068,-4.6066,-4.6136,-4.5977,-4.6058,-4.6108,-4.5964,-4.6074,-4.6058,-4.6061,-4.6205,-4.6267,-4.6199,-4.6515,-4.6403,-4.6425,-4.643,-4.651,-4.655,-4.6585,-4.6122,-4.612,-4.6118,0,0,-4.6263,-4.6257,-4.6369,-4.6371,-4.637,-4.6328,-4.6355,-4.6332,-4.6315,-4.6424,-4.6317,-4.6376,-4.6469,-4.6475,-4.649,-4.6757,-4.6674,-4.6775,-4.694,-4.7026,-4.7059,-4.7088,-4.7183,-4.7218,-4.6794,-4.6795,-4.6795,0,-4.6421,-4.6521,-4.6437,-4.6525,-4.6546,-4.6417,-4.6531,-4.6537,-4.6552,-4.657,-4.6494,-4.6607,-4.6599,-4.6742,-4.6807,-4.6824,-4.6852,-4.6776,-4.7061,-4.7089,-4.7114,-4.7204,-4.724,-4.6807,-4.6806,-4.6805,-4.6803,0,-4.6714,-4.6785,-4.6876,-4.6893,-4.6924,-4.7025,-4.6957,-4.6998,-4.6938,-4.6904,-4.7015,-4.7002,-4.7042,-4.7072,-4.7014,-4.7207,-4.7165,-4.7077,-4.6942,-4.7168,-4.725,-4.7284,-4.6825,-4.682,-4.6817,-4.6814,0,0,-4.7105,-4.7073,-4.7108,-4.7113,-4.7102,-4.7156,-4.725,-4.7288,-4.7326,-4.734,-4.7417,-4.7498,-4.7415,-4.7433,-4.7375,-4.745,-4.7662,-4.7352,-4.7351,-4.741,-4.7873,-4.794,-4.7981,-4.7606,-4.7612,-4.7617,-4.7872,0,-4.7362,-4.752,-4.7448,-4.7614,-4.7679,-4.7557,-4.7639,-4.7641,-4.7612,-4.7662,-4.7628,-4.7687,-4.7574,-4.7584,-4.7653,-4.7622,-4.7754,-4.7602,-4.7677,-4.7681,-4.7681,-4.8024,-4.8095,-4.8336,-4.7904,-4.791,-4.7914,0,-4.7684,-4.771,-4.7883,-4.786,-4.7884,-4.7959,-4.7987,-4.8037,-4.8037,-4.801,-4.8029,-4.7953,-4.8044,-4.791,-4.8033,-4.7932,-4.7958,-4.7947,-4.7955,-4.7959,-4.7811,-4.8038,-4.8411,-4.8448,-4.7964,-4.796,-4.7956,0,-4.7951,-4.803,-4.8143,-4.8152,-4.8127,-4.8183,-4.8175,-4.8168,-4.8195,-4.8221,-4.8237,-4.8274,-4.8294,-4.8324,-4.8259,-4.8168,-4.8392,-4.8253,-4.8372,-4.8374,-4.8425,-4.8423,-4.8809,-4.8443,-4.8442,-4.8442,-4.8441,0,-4.8246,-4.8357,-4.8263,-4.8333,-4.8453,-4.8368,-4.8489,-4.8468,-4.8463,-4.8527,-4.8424,-4.8486,-4.8397,-4.8451,-4.8401,-4.8511,-4.8521,-4.8502,-4.8487,-4.8511,-4.8514,-4.8527,-4.8509,-4.8451,-4.8449,-4.8447,-4.8446,0,-4.8566,-4.8507,-4.8623,-4.8589,-4.8583,-4.8673,-4.8645,-4.8708,-4.867,-4.8752,-4.8766,-4.8708,-4.8766,-4.8704,-4.8758,-4.8724,-4.8872,-4.8833,-4.8872,-4.8861,-4.8984,-4.8973,-4.9392,-4.9443,-4.9045,-4.9048,-4.9052,0,-4.8758,-4.884,-4.8815,-4.885,-4.8848,-4.8906,-4.8932,-4.8852,-4.8884,-4.889,-4.8953,-4.9001,-4.9035,-4.9133,-4.9096,-4.9136,-4.9097,-4.9241,-4.9103,-4.9124,-4.9099,-4.9095,-4.9103,-4.927,-4.9274,-4.9278,-4.9281,0,-4.9106,-4.9072,-4.9114,-4.9147,-4.9181,-4.9203,-4.9217,-4.9252,-4.9168,-4.921,-4.9267,-4.9294,-4.9347,-4.9397,-4.9426,-4.9418,-4.9337,-4.9325,-4.9355,-4.938,-4.9399,-4.939,-4.8949,-4.9316,-4.9313,-4.931,-4.9308,-4.9307,-4.9367,-4.9433,-4.9426,-4.9476,-4.9478,-4.9493,-4.955,-4.9519,-4.9565,-4.9602,-4.9551,-4.9622,-4.9619,-4.9649,-4.9651,-4.9705,-4.9644,-4.9687,-4.9698,-4.971,-4.9728,-4.9391,-4.971,-4.9709,-4.9708,-4.9707,-4.9707,0,-4.9708,-4.9697,-4.9744,-4.9766,-4.9806,-4.9724,-4.9735,-4.9774,-4.9837,-4.984,-4.9876,-4.9941,-4.9988,-4.9955,-4.9994,-5.0044,-5.0008,-5.0058,-5.0053,-5.0053,-4.9781,-4.9751,-5.0086,-5.0086,-5.0086,-5.0086,-5.0086,-5.0086,-4.9891,-4.9999,-4.9964,-5.0072,-5.006,-5.0127,-5.0141,-5.0154,-5.0156,-5.0233,-5.0272,-5.0249,-5.0237,-5.0275,-5.0315,-5.0303,-5.0323,-5.0386,-5.0362,-5.0109,-5.0072,-5.0036,-5.0008,-5.0391,-5.0392,-5.0628,-5.0631,-5.0632]},{"header":{"parameterUnit":"m.s-1","parameterCategory":1,"la1":30.2991,"la2":30.254,"lo1":-89.0895,"lo2":-89.0444,"dy":0.0017,"dx":0.0017,"nx":28,"ny":28,"refTime":"2023-09-29T03:00:00:Z","depth":0,"parameterNumber":3,"parameterNumberName":"V-component_of_WINDS"},"data":[0,0,0,0,0,0,0,0,0,0,0,0,0,0,0,0,0,0,0,0,0,0,0,0,0,0,0,0,0,0,0,0,0,0,0,0,0,0,0,0,0,0,0,0,0,0,0,0,0,0,0,0,0,0,0,0,0,0,-2.292,-2.292,0,-2.2962,-2.2962,-2.2962,-2.2972,-2.2972,-2.2971,-2.2971,-2.3011,-2.3012,-2.3013,0,0,0,0,0,0,0,0,0,0,0,0,0,-2.2843,-2.2844,-2.292,-2.292,-2.2921,-2.2961,-2.2962,-2.2963,-2.2972,-2.2972,-2.2971,-2.2971,-2.301,-2.3012,-2.3013,0,0,0,0,0,0,0,0,0,0,0,0,0,-2.288,-2.2845,-2.2919,-2.293,-2.2932,-2.2961,-2.2962,-2.2963,-2.2972,-2.2972,-2.2971,-2.2971,-2.301,-2.3012,-2.3014,-2.3034,0,0,-2.302,-2.3021,0,0,0,0,0,0,0,0,-2.2878,-2.2882,-2.2928,-2.293,-2.2931,-2.2961,-2.295,-2.2987,-2.2972,-2.2957,-2.2971,-2.2971,-2.2994,-2.2998,-2.3006,-2.3036,-2.3038,-2.302,-2.3021,-2.3022,-2.3022,0,0,0,0,0,0,0,-2.2875,-2.2881,-2.2936,-2.2929,-2.2931,-2.2932,-2.2936,-2.2957,-2.2977,-2.2958,-2.2959,-2.2964,-2.2995,-2.3004,-2.3007,-2.3038,-2.302,-2.3022,-2.3023,-2.3024,-2.3085,-2.3085,0,0,0,0,0,0,-2.2871,-2.2879,-2.2935,-2.2937,-2.2903,-2.2933,-2.2939,-2.2952,-2.2977,-2.2981,-2.2964,-2.2964,-2.3001,-2.3005,-2.3009,-2.3033,-2.3022,-2.3024,-2.3025,-2.3085,-2.3085,-2.3086,0,0,0,0,0,0,-2.287,-2.2876,-2.2933,-2.2908,-2.2916,-2.2935,-2.295,-2.2953,-2.2962,-2.2982,-2.2985,-2.297,-2.3001,-2.3006,-2.3028,-2.3035,-2.3025,-2.3026,-2.3084,-2.3085,-2.3085,-2.3083,0,0,0,0,0,0,-2.2867,-2.2876,-2.2885,-2.2908,-2.2917,-2.2953,-2.295,-2.2954,-2.2966,-2.2966,-2.2988,-2.2991,-2.3001,-2.3025,-2.303,-2.3037,-2.3028,-2.3084,-2.3084,-2.3085,-2.3083,-2.3084,-2.3085,0,0,0,0,0,-2.2865,-2.2882,-2.2885,-2.2892,-2.2929,-2.2953,-2.2958,-2.297,-2.2967,-2.2975,-2.2987,-2.2991,-2.3033,-2.3027,-2.3032,-2.3041,-2.3083,-2.3084,-2.3085,-2.3083,-2.3084,-2.3085,0,0,0,0,0,0,-2.2858,-2.2886,-2.2889,-2.2915,-2.2932,-2.2955,-2.2966,-2.2971,-2.2988,-2.2987,-2.3,-2.3004,-2.3025,-2.3035,-2.3027,-2.3061,-2.3058,-2.306,-2.3054,-2.3055,-2.3056,-2.3053,-2.303,0,0,0,0,0,-2.286,-2.2879,-2.2901,-2.2922,-2.293,-2.2946,-2.2957,-2.2965,-2.2982,-2.2989,-2.3003,-2.3018,-2.3035,-2.3046,-2.3062,-2.3084,-2.3088,-2.3093,-2.3094,-2.3094,-2.3096,-2.3107,-2.3109,-2.3089,-2.3089,-2.3089,0,0,-2.2864,-2.2881,-2.2892,-2.2921,-2.2935,-2.2952,-2.2952,-2.2971,-2.2984,-2.2991,-2.3013,-2.3023,-2.3041,-2.3063,-2.3073,-2.3072,-2.3102,-2.3096,-2.3096,-2.3097,-2.3108,-2.311,-2.3111,-2.309,-2.309,-2.3089,0,0,-2.2879,-2.2894,-2.2913,-2.2926,-2.2947,-2.2958,-2.2962,-2.2984,-2.2992,-2.3014,-2.3019,-2.3034,-2.3063,-2.3075,-2.3085,-2.3103,-2.3106,-2.3108,-2.3112,-2.3123,-2.3124,-2.3126,-2.3131,-2.3133,-2.3109,-2.3109,-2.3109,0,-2.288,-2.2908,-2.2921,-2.294,-2.2951,-2.296,-2.2977,-2.299,-2.3014,-2.3022,-2.302,-2.3056,-2.3068,-2.3092,-2.3097,-2.3105,-2.3109,-2.3105,-2.3123,-2.3125,-2.3126,-2.3131,-2.3133,-2.3109,-2.3109,-2.3109,-2.3109,0,-2.2908,-2.2927,-2.2939,-2.2964,-2.2977,-2.2995,-2.3009,-2.302,-2.3026,-2.3036,-2.3057,-2.3073,-2.3092,-2.3098,-2.3104,-2.3122,-2.312,-2.3121,-2.3118,-2.3128,-2.3133,-2.3135,-2.3109,-2.3109,-2.3109,-2.3109,0,0,-2.2921,-2.2952,-2.2956,-2.2967,-2.299,-2.3004,-2.3021,-2.3041,-2.3049,-2.3066,-2.3079,-2.3103,-2.3103,-2.3114,-2.3121,-2.3131,-2.3142,-2.313,-2.313,-2.3131,-2.3162,-2.3161,-2.3163,-2.3144,-2.3145,-2.3145,-2.316,0,-2.2939,-2.2971,-2.2983,-2.3009,-2.3025,-2.3033,-2.3048,-2.3062,-2.3072,-2.3086,-2.3096,-2.3112,-2.3112,-2.3119,-2.3128,-2.3139,-2.3148,-2.3138,-2.3156,-2.3156,-2.3151,-2.3166,-2.3165,-2.3178,-2.3162,-2.3162,-2.3163,0,-2.2964,-2.2981,-2.3009,-2.3029,-2.3036,-2.3049,-2.3067,-2.3081,-2.3097,-2.3103,-2.3115,-2.3121,-2.3138,-2.3134,-2.3156,-2.3148,-2.3156,-2.3162,-2.3163,-2.3165,-2.316,-2.3167,-2.3183,-2.3185,-2.3166,-2.3166,-2.3165,0,-2.2969,-2.2999,-2.3019,-2.3028,-2.3052,-2.3061,-2.3071,-2.3087,-2.3097,-2.3112,-2.3119,-2.3135,-2.3144,-2.3156,-2.3166,-2.3162,-2.3186,-2.3183,-2.319,-2.319,-2.3195,-2.3195,-2.3212,-2.3201,-2.3201,-2.3201,-2.3201,0,-2.2987,-2.3004,-2.3022,-2.3034,-2.3052,-2.3065,-2.3082,-2.3092,-2.3105,-2.3119,-2.3126,-2.3138,-2.315,-2.3163,-2.3171,-2.3187,-2.3191,-2.3195,-2.3197,-2.3194,-2.3194,-2.3199,-2.3198,-2.3202,-2.3201,-2.3201,-2.3201,0,-2.2996,-2.301,-2.3032,-2.3052,-2.3058,-2.307,-2.3087,-2.3098,-2.3107,-2.3124,-2.3128,-2.3143,-2.3159,-2.317,-2.319,-2.3194,-2.3212,-2.3214,-2.3206,-2.3207,-2.3214,-2.3212,-2.3235,-2.3237,-2.3225,-2.3225,-2.3226,0,-2.3006,-2.3019,-2.3041,-2.3051,-2.3061,-2.3077,-2.3088,-2.3099,-2.311,-2.3128,-2.3137,-2.3153,-2.3167,-2.3191,-2.3203,-2.3218,-2.3219,-2.3226,-2.3222,-2.3218,-2.3218,-2.3217,-2.3218,-2.3227,-2.3227,-2.3227,-2.3227,0,-2.3023,-2.3029,-2.3044,-2.3062,-2.3075,-2.3089,-2.3103,-2.3111,-2.3124,-2.3136,-2.3152,-2.3163,-2.3183,-2.3199,-2.3214,-2.3223,-2.3227,-2.3228,-2.323,-2.3228,-2.3223,-2.3225,-2.3208,-2.3227,-2.3227,-2.3227,-2.3227,-2.3227,-2.3032,-2.3044,-2.306,-2.3077,-2.3089,-2.3102,-2.3113,-2.3124,-2.3139,-2.3157,-2.3162,-2.3179,-2.3193,-2.3215,-2.3224,-2.3236,-2.3235,-2.3239,-2.324,-2.324,-2.324,-2.3221,-2.3239,-2.3239,-2.3239,-2.3239,-2.3239,0,-2.3048,-2.3059,-2.3075,-2.3094,-2.3107,-2.3111,-2.3126,-2.3136,-2.3151,-2.3164,-2.3178,-2.3196,-2.321,-2.3223,-2.3238,-2.3245,-2.3247,-2.3248,-2.3248,-2.3249,-2.324,-2.3236,-2.3247,-2.3247,-2.3247,-2.3247,-2.3247,-2.3247,-2.3058,-2.3077,-2.3084,-2.3108,-2.3119,-2.3136,-2.3144,-2.3156,-2.3166,-2.3186,-2.3199,-2.3207,-2.322,-2.3235,-2.3248,-2.3252,-2.3256,-2.3257,-2.3261,-2.3251,-2.325,-2.3249,-2.3246,-2.3258,-2.3258,-2.3269,-2.3269,-2.3269]}]]